Location: ??????????
(48.4699°N, 37.9573°E)
Time: 13:09:57
(UTC+00:00)

H-2A R/B - Pass Details

Date: 20 January 2021
Orbit: 577 x 655 km, 98.5° (Epoch: 26 February)

Event Time Altitude Azimuth Distance (km) Brightness Sun altitude
Rises 15:13:58 0° 12° (NNE) 2,981 5.3 -10.8°
Reaches altitude 10° 15:16:12 10° 11° (N) 2,058 4.5 -11.1°
Maximum altitude 15:20:40 72° 288° (WNW) 675 2.4 -11.8°
Drops below altitude 10° 15:25:01 10° 204° (SSW) 2,000 5.2 -12.5°
Sets 15:27:11 0° 202° (SSW) 2,890 6.1 -12.9°
